{"data":{"norad_id":61612,"intl_designator":"2024-188U","name":"ONEWEB-0707","alt_names":[],"object_type":"PAYLOAD","status":"ACTIVE","operator":null,"country":"UK","launch_date":"2024-10-20","launch_site_code":"AFWTR","launch_vehicle":null,"mission":null,"orbit_class":"UNKNOWN","rcs_meters":null,"size_class":null,"mass_kg":null,"dimensions":null,"purposes":["comms"],"wikipedia_slug":null,"has_3d_model":false,"image_url":null,"decayed_at":null,"tle_current":{"epoch":"2026-05-25T03:48:47.263968Z","epoch_age_seconds":61465,"freshness":"FRESH","line1":"1 61612U 24188U   26145.15888037  .00000668  00000+0  18767-2 0  9997","line2":"2 61612  87.8861  40.8419 0001402  94.5590 265.5698 13.10374115 80309","mean_motion":13.10374115,"eccentricity":0.0001402,"inclination_deg":87.8861,"raan_deg":40.8419,"arg_perigee_deg":94.559,"mean_anomaly_deg":265.5698,"bstar":0.0018767,"rev_number":8030,"period_min":109.89228064842,"perigee_km":1220.6466332034,"apogee_km":1222.7776309,"semimajor_km":7599.8491320517,"source":"CELESTRAK","updated_at":"2026-05-25T13:38:22.751838Z"}}}